Find Kosmos-2299

NORAD ID: 23441 Int'l Des: 1994-086 Owner: VKS Country: RU operational
LEOCIRCULARPOLAR

实时位置

正在加载3D地球...

关于 Kosmos-2299

正在加载描述...

即将过境

Passes for default location (London). Set your location on the main map for personalized predictions.

高度历史

Loading altitude history...

两行轨道根数

1 23441U 94086A 26120.60707399 .00000050 00000-0 21547-3 0 9990
2 23441 82.5690 327.3681 0006606 314.2488 45.8061 12.63797461445692
Epoch: Apr 30, 2026 • Age: 5 hours

当前状态

高度 1413.4 km
速度 7.15 km/s
星下点 4.65°N, 1.53°W
发射日期 Dec 26, 1994
运行时间 31.3 years
类型 other

技术详情

分类 Payload
质量 225.00 kg
干质量 225.00 kg
总质量 225.00 kg
长度 1.60 m
直径 0.80 m
跨度 7.00 m
形状 Cyl + Ant
制造商 NPOPMR
平台类型 Strela-3
阶段状态 In Orbit
所有者/国家 VKS/RU

Most Searched